STARLINK-36700

Last updated on Thu Mar 05 2026 00:02:08 GMT+0000 (Coordinated Universal Time)

1 67662U 26022Q 26063.56283000 .00480269 00000+0 30309-2 0 9995 2 67662 97.2821 97.3135 0001058 53.5757 306.5606 15.75282001 4744
UTC large
Height (km)
Speed (km/s)
/
Latitude / Longitude
Inclination (degrees)
Orbital Period (minutes)
Azimuth
Elevation
Range (km)
Doppler Factor

Next 0 passes for location: London (51.5072 / 0.1276)

Sorry there are no passes over London.